Weather History for Nome, AK

Change the Weather History Date:

Friday, July 26, 2013

  Actual Average Record
Temperature  
Mean Temperature 54 °F 52 °F  
Max Temperature 58 °F 58 °F 78 °F (1926)
Min Temperature 50 °F 46 °F 35 °F (1929)
Degree Days  
Heating Degree Days 11 13  
Month to date heating degree days 365 335  
Since 1 June heating degree days 841 851  
Since 1 July heating degree days 365 335  
Cooling Degree Days 0    
Month to date cooling degree days 0  
Year to date cooling degree days 7  
Since 1 June cooling degree days 7  
Growing Degree Days 4 (Base 50)    
Moisture  
Dew Point 51 °F    
Average Humidity 0    
Maximum Humidity 0    
Minimum Humidity 0    
Precipitation  
Precipitation T in 0.08 in 1.34 in (1956)
Month to date precipitation 2.06 1.64  
Year to date precipitation 8.84 6.76  
Snow  
Snow 0.00 in 0.00 in 0.00 in (2014)
Month to date snowfall 0.0 0.0  
Since 1 June snowfall 0.1 0.3  
Since 1 July snowfall 0.0 0.0  
Snow Depth 0.00 in    
Sea Level Pressure  
Sea Level Pressure 30.23 in    
Wind  
Wind Speed 12 mph (West)    
Max Wind Speed 18 mph    
Max Gust Speed 23 mph    
Visibility 7 miles    
Events      
T = Trace of Precipitation, MM = Missing Value Source: NWS Daily Summary

Daily Weather History Graph

Daily Weather History Graph

Search for Another Location

Airport:

Trip Planner

Search our weather history database for the weather conditions in past years. The results will help you decide how hot, cold, wet, or windy it might be!

Date:

Astronomy

Jul. 26, 2013 Rise Set
Actual Time 5:46 AM AKDT 12:27 AM AKDT
Civil Twilight 3:34 AM AKDT 2:27 AM AKDT
Nautical Twilight Sun does not rise Sun does not rise
Astronomical Twilight Sun does not rise Sun does not rise
Moon 12:07 AM AKDT (7/26) 1:00 PM AKDT (7/26)
Length of Visible Light 22h 52m
Length of Day
18h 40m
Waning Gibbous, 79% of the Moon is Illuminated
Jul 26
Waning Gibbous
Jul 29
Last Quarter
Aug 6
New
Aug 14
First Quarter
Aug 20
Full

Hourly Weather History & Observations

Time (AKDT) Temp. Dew Point Humidity Pressure Visibility Wind Dir Wind Speed Gust Speed Precip Events Conditions
12:27 AM 51.8 °F 50.0 °F 94% 30.20 in 10.0 mi West 12.7 mph - N/A   Overcast
12:48 AM 51.8 °F 50.0 °F 94% 30.20 in 10.0 mi West 11.5 mph - N/A   Overcast
12:53 AM 52.0 °F 50.0 °F 93% 30.19 in 10.0 mi West 9.2 mph - N/A   Overcast
1:53 AM 51.1 °F 50.0 °F 96% 30.19 in 10.0 mi West 11.5 mph - 0.00 in   Light Drizzle
2:40 AM 51.8 °F 50.0 °F 94% 30.20 in 4.0 mi WNW 6.9 mph - 0.00 in   Light Drizzle
2:53 AM 51.1 °F 50.0 °F 96% 30.19 in 8.0 mi West 6.9 mph - 0.00 in   Light Drizzle
3:16 AM 51.8 °F 50.0 °F 94% 30.19 in 10.0 mi WNW 5.8 mph - 0.00 in   Overcast
3:53 AM 50.0 °F 50.0 °F 100% 30.20 in 6.0 mi West 5.8 mph - 0.00 in   Overcast
4:16 AM 51.8 °F 50.0 °F 94% 30.20 in 10.0 mi West 9.2 mph - N/A   Overcast
4:53 AM 51.1 °F 48.9 °F 92% 30.19 in 10.0 mi WNW 4.6 mph - N/A   Overcast
5:53 AM 51.1 °F 48.9 °F 92% 30.20 in 10.0 mi WNW 4.6 mph - N/A   Overcast
6:43 AM 51.8 °F 50.0 °F 94% 30.20 in 1.8 mi WNW 4.6 mph - N/A   Overcast
6:53 AM 51.1 °F 50.0 °F 96% 30.20 in 1.0 mi WNW 4.6 mph - N/A   Overcast
7:42 AM 51.8 °F 51.8 °F 100% 30.21 in 2.0 mi NW 3.5 mph - N/A   Overcast
7:53 AM 52.0 °F 51.1 °F 97% 30.20 in 3.0 mi NW 3.5 mph - N/A   Overcast
8:12 AM 51.8 °F 51.8 °F 100% 30.20 in 2.0 mi West 6.9 mph - 0.00 in   Light Drizzle
8:16 AM 53.6 °F 51.8 °F 94% 30.20 in 0.8 mi West 8.1 mph - 0.00 in   Light Drizzle
8:42 AM 51.8 °F 51.8 °F 100% 30.21 in 1.2 mi West 10.4 mph - 0.00 in   Light Drizzle
8:53 AM 52.0 °F 51.1 °F 97% 30.22 in 2.0 mi West 11.5 mph - 0.00 in   Light Drizzle
9:32 AM 51.8 °F 51.8 °F 100% 30.22 in 4.0 mi West 11.5 mph - 0.00 in   Overcast
9:53 AM 52.0 °F 50.0 °F 93% 30.23 in 4.0 mi West 11.5 mph - 0.00 in   Overcast
10:01 AM 51.8 °F 50.0 °F 94% 30.23 in 10.0 mi West 11.5 mph - N/A   Mostly Cloudy
10:28 AM 53.6 °F 51.8 °F 94% 30.24 in 10.0 mi West 11.5 mph - N/A   Mostly Cloudy
10:53 AM 53.1 °F 51.1 °F 93% 30.24 in 10.0 mi West 10.4 mph - N/A   Mostly Cloudy
11:53 AM 54.0 °F 51.1 °F 90% 30.24 in 10.0 mi West 17.3 mph - N/A   Mostly Cloudy
12:53 PM 55.0 °F 52.0 °F 89% 30.25 in 10.0 mi WSW 12.7 mph - N/A   Mostly Cloudy
1:08 PM 55.4 °F 51.8 °F 88% 30.25 in 10.0 mi WSW 13.8 mph - N/A   Overcast
1:26 PM 55.4 °F 53.6 °F 94% 30.26 in 10.0 mi West 17.3 mph - N/A   Mostly Cloudy
1:53 PM 55.9 °F 53.1 °F 90% 30.26 in 10.0 mi WSW 13.8 mph - N/A   Mostly Cloudy
2:53 PM 57.0 °F 53.1 °F 87% 30.26 in 10.0 mi WSW 17.3 mph - N/A   Mostly Cloudy
3:53 PM 55.9 °F 53.1 °F 90% 30.27 in 7.0 mi WSW 17.3 mph - N/A   Mostly Cloudy
4:12 PM 55.4 °F 51.8 °F 88% 30.26 in 3.0 mi WSW 15.0 mph - N/A   Mostly Cloudy
4:32 PM 55.4 °F 53.6 °F 94% 30.27 in 7.0 mi WSW 15.0 mph - N/A   Mostly Cloudy
4:53 PM 55.9 °F 52.0 °F 87% 30.27 in 10.0 mi WSW 13.8 mph - N/A   Mostly Cloudy
5:53 PM 57.0 °F 53.1 °F 87% 30.27 in 10.0 mi WSW 15.0 mph - N/A   Mostly Cloudy
6:53 PM 55.9 °F 53.1 °F 90% 30.27 in 10.0 mi West 17.3 mph - N/A   Mostly Cloudy
7:53 PM 55.0 °F 53.1 °F 93% 30.27 in 9.0 mi WSW 17.3 mph - N/A   Mostly Cloudy
8:53 PM 54.0 °F 53.1 °F 97% 30.27 in 5.0 mi West 17.3 mph - N/A   Mostly Cloudy
9:53 PM 55.0 °F 53.1 °F 93% 30.27 in 10.0 mi West 12.7 mph - N/A   Mostly Cloudy
10:53 PM 55.0 °F 52.0 °F 89% 30.27 in 10.0 mi West 8.1 mph - N/A   Mostly Cloudy
11:53 PM 55.0 °F 53.1 °F 93% 30.27 in 10.0 mi West 9.2 mph - N/A   Mostly Cloudy